EW2309 Weather Reports


Display with metric or nautical units.
time (UTC)temp
F
wind
direction
speed
MPH
gust
MPH
rain 1hr
in
rain 24hr
in
rain mn
in
humidity
%
barometer
mb
20260831033025 74 319 0.0 0.0 0.00 0.00 0.00 83 1018.2
20260831031506 74 319 0.0 0.0 0.00 0.00 0.00 83 1018.2
20260831030017 75 319 0.0 0.0 0.00 0.00 0.00 83 1018.4
20260831024551 75 319 0.0 0.0 0.00 0.00 0.00 82 1018.3
20260831023049 75 319 0.0 0.0 0.00 0.00 0.00 82 1018.4
20260831021534 75 319 0.0 0.0 0.00 0.00 0.00 82 1018.3
20260831020031 76 319 0.0 0.0 0.00 0.00 0.00 81 1018.1
20260831014513 76 319 0.0 0.0 0.00 0.00 0.00 80 1017.8
20260831013013 77 319 0.0 0.0 0.00 0.00 0.00 80 1017.7
20260831011501 77 319 0.0 0.0 0.00 0.00 0.00 79 1017.6
20260831010104 78 319 0.0 0.0 0.00 0.00 0.00 78 1017.4
20260831004600 78 319 0.0 0.0 0.00 0.00 0.00 78 1017.3
20260831003100 79 319 0.0 0.0 0.00 0.00 0.00 77 1017.1
20260831001600 80 319 0.0 0.0 0.00 0.00 0.00 75 1016.9
20260831000104 81 319 0.0 0.0 0.00 0.00 0.00 73 1016.9
20260830234606 82 319 0.0 0.0 0.00 0.00 0.00 72 1017.0
20260830233104 83 319 0.0 0.0 0.00 0.00 0.00 70 1017.0
20260830231540 84 319 0.0 0.0 0.00 0.00 0.00 69 1017.1
20260830230039 84 319 0.0 0.0 0.00 0.00 0.00 67 1016.9
20260830224522 85 319 0.0 0.0 0.00 0.00 0.00 68 1016.9
20260830223023 86 319 0.0 2.0 0.00 0.00 0.00 65 1016.9
20260830221503 87 319 0.0 0.0 0.00 0.00 0.00 63 1016.9
20260830220008 88 319 0.0 2.0 0.00 0.00 0.00 61 1017.0
20260830214604 88 228 0.0 0.0 0.00 0.00 0.00 63 1017.0
20260830213045 89 228 0.0 0.0 0.00 0.00 0.00 59 1017.0
20260830211548 89 229 0.0 1.0 0.00 0.00 0.00 58 1017.0
20260830210031 90 212 2.0 4.0 0.00 0.00 0.00 56 1017.1
20260830204542 89 250 0.0 2.0 0.00 0.00 0.00 58 1017.1
20260830203025 89 207 1.0 3.0 0.00 0.00 0.00 58 1017.5
20260830201523 89 205 0.0 2.0 0.00 0.00 0.00 62 1017.6
20260830200033 89 232 1.0 4.0 0.00 0.00 0.00 58 1017.8
20260830194520 89 281 1.0 3.0 0.00 0.00 0.00 61 1018.0
20260830193015 89 238 0.0 3.0 0.00 0.00 0.00 61 1018.1
20260830191551 88 210 1.0 6.0 0.00 0.00 0.00 62 1018.4
20260830190107 88 204 0.0 4.0 0.00 0.00 0.00 62 1018.6
20260830184549 87 160 1.0 3.0 0.00 0.00 0.00 64 1018.8
20260830183030 86 213 2.0 4.0 0.00 0.00 0.00 69 1019.0
20260830181529 86 215 2.0 4.0 0.00 0.00 0.00 65 1019.3
20260830180010 86 230 2.0 5.0 0.00 0.00 0.00 66 1019.3
20260830174512 85 207 1.0 4.0 0.00 0.00 0.00 67 1019.5
20260830173051 85 234 0.0 3.0 0.00 0.00 0.00 68 1019.7
20260830171549 85 218 2.0 5.0 0.00 0.00 0.00 69 1019.9
20260830170029 83 231 0.0 4.0 0.00 0.00 0.00 71 1020.1
20260830164526 83 257 1.0 3.0 0.00 0.00 0.00 74 1020.3
20260830163018 82 244 1.0 4.0 0.00 0.00 0.00 73 1020.4
20260830161504 81 207 2.0 6.0 0.00 0.00 0.00 78 1020.6
20260830160043 79 250 0.0 2.0 0.00 0.00 0.00 81 1020.6
20260830154541 79 254 1.0 3.0 0.00 0.00 0.00 80 1020.6
20260830153019 79 231 0.0 4.0 0.00 0.00 0.00 84 1020.7
20260830151519 78 236 1.0 3.0 0.00 0.00 0.00 83 1020.6
20260830150057 78 234 0.0 2.0 0.00 0.00 0.00 86 1020.8
20260830144607 77 235 0.0 1.0 0.00 0.00 0.00 88 1020.8
20260830143036 76 235 0.0 2.0 0.00 0.00 0.00 89 1020.6
20260830141535 75 235 1.0 3.0 0.00 0.00 0.00 90 1020.6
20260830140013 75 244 0.0 2.0 0.00 0.00 0.00 91 1020.7
20260830134509 74 242 0.0 3.0 0.00 0.00 0.00 93 1020.5
20260830133100 73 244 0.0 1.0 0.00 0.00 0.00 95 1020.5
20260830131553 73 244 0.0 2.0 0.00 0.00 0.00 96 1020.4
20260830130030 72 244 0.0 2.0 0.00 0.00 0.00 96 1020.3
20260830124527 71 257 0.0 0.0 0.00 0.00 0.00 97 1020.2
20260830123027 71 257 0.0 0.0 0.00 0.00 0.00 97 1019.9
20260830121622 70 257 0.0 0.0 0.00 0.00 0.00 96 1019.8
20260830120021 70 257 0.0 0.0 0.00 0.00 0.00 95 1019.6
20260830114521 70 257 0.0 0.0 0.00 0.00 0.00 94 1019.6
20260830113019 70 257 0.0 0.0 0.00 0.00 0.00 94 1019.4
20260830111524 70 257 0.0 0.0 0.00 0.00 0.00 94 1019.1
20260830110058 70 257 0.0 0.0 0.00 0.00 0.00 94 1019.1
20260830104554 70 257 0.0 0.0 0.00 0.00 0.00 93 1019.1
20260830103036 70 257 0.0 0.0 0.00 0.00 0.00 93 1018.9
20260830101534 70 257 0.0 0.0 0.00 0.00 0.00 92 1018.9
20260830100016 70 257 0.0 0.0 0.00 0.00 0.00 92 1018.8
20260830094518 70 257 0.0 0.0 0.00 0.00 0.00 92 1018.8
20260830093058 70 257 0.0 0.0 0.00 0.00 0.00 91 1018.9
20260830091557 71 257 0.0 0.0 0.00 0.00 0.00 91 1018.8
20260830090039 71 257 0.0 0.0 0.00 0.00 0.00 91 1018.7
20260830084543 71 257 0.0 0.0 0.00 0.00 0.00 90 1018.6
20260830083028 71 257 0.0 0.0 0.00 0.00 0.00 90 1018.5
20260830081532 72 257 0.0 0.0 0.00 0.00 0.00 89 1018.5
20260830080002 72 257 0.0 0.0 0.00 0.00 0.00 88 1018.4
20260830074502 72 257 0.0 0.0 0.00 0.00 0.00 87 1018.4
20260830073044 73 257 0.0 0.0 0.00 0.00 0.00 87 1018.4
20260830071546 73 257 0.0 0.0 0.00 0.00 0.00 86 1018.5
20260830070048 74 257 0.0 0.0 0.00 0.00 0.00 86 1018.4
20260830064531 74 257 0.0 0.0 0.00 0.00 0.00 86 1018.5
20260830063034 74 257 0.0 0.0 0.00 0.00 0.00 85 1018.7
20260830061532 74 257 0.0 2.0 0.00 0.00 0.00 86 1018.7
20260830060043 73 260 0.0 0.0 0.00 0.00 0.00 86 1018.7
20260830054530 73 260 0.0 0.0 0.00 0.00 0.00 86 1018.8
20260830053028 73 260 0.0 0.0 0.00 0.00 0.00 86 1018.8
20260830051535 74 260 0.0 0.0 0.00 0.00 0.00 86 1018.9
20260830050010 74 260 0.0 0.0 0.00 0.00 0.00 85 1019.0
20260830044509 74 260 0.0 0.0 0.00 0.00 0.00 84 1018.9
20260830043052 75 260 0.0 0.0 0.00 0.00 0.00 83 1019.0
20260830041602 75 260 0.0 0.0 0.00 0.00 0.00 83 1019.1
20260830040049 75 260 0.0 0.0 0.00 0.00 0.00 83 1019.1
20260830034539 75 260 0.0 1.0 0.00 0.00 0.00 83 1019.0